Snowfall_Accumulation
0.0 0.0 0.0 0.0 0.0 0.0 0.0 0.0 0.0 0.0 0.0 0.0 0.0 0.0 0.0 0.0 0.0 0.0 0.0 0.0 0.0 0.0 0.0 0.0 0.0 0.0 0.0 0.0 0.0 0.0 0.0 0.0 0.0 0.0 0.0 0.0 0.0 0.0 0.0 0.0 0.0 0.0 0.0
0.0 0.0 0.0 0.0 0.0 0.0 0.0 0.0 0.0 0.0 0.0 0.0 0.0 0.0 0.0 0.0 0.0 0.0 0.0 0.0 0.0 0.0 0.0 0.0 0.0 0.0 0.0 0.0 0.0 0.0 0.0 0.0 0.0 0.0 0.0 0.0 0.0 0.0 0.0 0.0 0.0 0.0 0.0
0.0 0.0 0.0 0.0 0.0 0.0 0.0 0.0 0.0 0.0 0.0 0.0 0.0 0.0 0.0 0.0 0.0 0.0 0.0 0.0 0.0 0.0 0.0 0.0 0.0 0.0 0.0 0.0 0.0 0.0 0.0 0.0 0.0 0.0 0.0 0.0 0.0 0.0 0.0 0.0 0.0 0.0 0.0
0.0 0.0 0.0 0.0 0.0 0.0 0.0 0.0 0.0 0.0 0.0 0.0 0.0 0.0 0.0 0.0 0.0 0.0 0.0 0.0 0.0 0.0 0.0 0.0 0.0 0.0 0.0 0.0 0.0 0.0 0.0 0.0 0.0 0.0 0.0 0.0 0.0 0.0 0.0 0.0 0.0 0.0 0.0
0.0 0.0 0.0 0.0 0.0 0.0 0.0 0.0 0.0 0.0 0.0 0.0 0.0 0.0 0.0 0.0 0.0 0.0 0.0 0.0 0.0 0.0 0.0 0.0 0.0 nan nan nan 0.0 0.0 0.0 0.0 0.0 0.0 0.0 0.0 0.0 0.0 0.0 0.0 0.0 0.0 0.0
0.0 0.0 0.0 0.0 0.0 0.0 0.0 0.0 0.0 0.0 0.0 0.0 0.0 0.0 0.0 0.0 nan nan 0.0 0.0 0.0 0.0 0.0 0.0 0.0 0.0 0.0 nan nan nan nan 0.0 0.0 0.0 0.0 0.0 0.0 0.0 0.0 0.0 0.0 0.1 0.1
0.0 0.0 0.0 0.0 0.0 0.0 0.0 0.0 0.0 0.0 0.0 0.0 0.0 0.0 0.0 0.0 nan nan nan 0.0 0.0 0.0 0.0 0.0 0.0 0.0 nan 0.0 nan nan nan nan nan 0.0 0.0 0.0 0.0 0.0 0.0 0.0 0.0 0.1 0.0
0.0 0.0 0.0 0.0 0.0 0.0 0.0 0.0 0.0 0.0 0.0 0.0 0.0 0.0 0.0 0.0 nan nan nan 0.0 0.0 0.0 0.0 0.0 0.0 0.0 0.0 0.0 0.0 0.0 0.0 0.0 0.0 0.0 0.0 0.0 0.0 0.0 0.0 0.0 0.0 0.0 0.0
0.0 0.0 0.0 0.0 0.0 0.0 0.0 0.0 0.0 0.0 0.0 0.0 0.0 0.0 0.0 0.0 nan nan 0.0 0.0 0.0 0.0 0.0 0.0 0.0 0.0 nan nan 0.0 0.0 0.0 0.0 nan nan nan nan nan nan nan 0.0 0.2 0.3 0.2
0.0 0.0 0.0 0.0 0.0 0.0 0.0 0.0 0.0 0.0 0.0 0.0 0.0 0.0 nan 0.0 nan nan nan 0.0 0.0 0.0 0.0 0.0 nan 0.0 nan nan 0.0 0.0 0.0 0.0 0.0 0.0 0.0 0.0 nan nan nan 0.0 0.2 0.9 0.7
0.0 0.0 0.0 0.0 0.0 0.0 0.0 0.0 0.0 0.0 0.0 0.0 0.0 0.0 0.0 0.0 0.0 nan nan 0.0 0.0 0.0 0.0 0.0 0.0 nan nan nan nan 0.0 0.0 0.0 0.0 0.0 0.1 0.2 0.1 0.1 0.1 0.1 0.0 0.7 1.5
0.0 0.0 0.0 0.0 0.0 0.0 0.0 0.0 0.0 0.0 0.0 0.0 0.0 0.0 0.0 0.0 nan nan nan nan nan 0.0 0.0 0.0 0.0 nan nan nan nan nan nan nan 0.0 0.0 0.1 0.2 0.3 0.4 0.3 0.2 0.0 0.1 0.2
0.0 0.0 0.0 0.0 0.0 0.0 0.0 0.0 0.0 0.0 0.0 0.0 0.0 0.0 0.0 0.0 0.0 nan nan nan nan 0.0 0.0 0.0 nan nan nan nan nan nan nan 0.0 0.0 0.3 0.3 0.5 0.5 0.5 0.2 0.4 0.1 0.1 0.2
0.0 0.0 0.0 0.0 0.0 0.0 0.0 0.0 0.0 0.0 0.0 0.0 0.0 0.0 0.0 0.0 0.0 0.0 0.0 0.0 nan 0.0 nan 0.1 nan 0.0 nan nan 0.0 0.0 0.0 0.0 0.1 0.3 0.3 0.3 0.4 0.9 0.9 0.8 1.9 1.9 3.1
0.0 0.0 0.0 0.0 0.0 0.0 0.0 0.0 0.0 0.0 0.0 0.0 0.0 0.0 0.0 0.0 0.0 0.0 0.0 0.0 0.0 0.0 nan 0.0 0.0 0.0 0.1 0.0 0.0 0.0 0.0 0.0 0.3 0.3 0.5 0.7 0.7 1.0 1.3 1.3 2.6 3.2 5.6
0.0 0.0 0.0 0.0 0.0 0.0 0.0 0.0 nan nan nan nan nan 0.0 0.0 nan nan nan nan nan nan nan 0.0 0.0 0.1 0.1 0.1 0.0 0.0 0.0 0.1 0.4 0.3 0.6 0.9 1.1 1.9 2.4 2.7 3.4 3.6 4.6 6.1
0.0 0.0 0.0 0.0 0.0 0.0 0.0 0.0 0.0 0.0 nan nan nan nan nan nan nan nan nan nan nan nan 0.0 0.2 0.3 0.3 0.3 0.3 0.4 0.6 1.4 0.6 0.5 2.5 2.4 2.5 2.9 3.4 3.5 4.0 4.1 3.9 4.3
0.0 nan 0.0 0.0 0.0 0.0 0.0 0.0 0.0 0.0 0.0 0.0 nan nan nan nan nan nan nan nan 0.0 nan 0.3 0.4 0.5 0.5 0.6 1.0 1.2 1.7 1.6 1.6 2.3 2.6 3.2 3.9 5.0 6.3 6.5 5.6 4.1 6.3 4.8
0.0 0.0 0.0 0.0 0.0 0.0 0.0 0.0 0.0 0.0 0.0 0.0 0.0 0.0 nan nan nan nan nan 0.0 0.1 0.3 0.3 0.4 0.3 0.5 0.7 0.8 0.9 1.2 1.1 2.5 3.8 5.4 4.4 5.6 5.2 6.8 5.9 4.1 3.5 2.1 nan
0.0 nan 0.0 0.1 0.1 0.1 0.0 0.0 0.1 0.1 0.1 0.0 0.0 0.0 0.1 0.2 0.3 0.2 0.2 0.2 0.2 0.2 0.2 0.3 0.3 0.4 0.6 1.0 1.4 1.6 2.5 2.8 3.2 3.3 4.3 4.6 4.4 4.8 6.3 4.6 3.5 6.5 4.3
0.0 0.0 nan 0.1 0.2 0.2 0.2 0.2 0.1 0.2 0.2 0.2 0.1 0.1 nan 0.3 0.3 0.2 0.2 0.2 0.3 0.3 0.4 0.3 0.4 0.6 0.8 1.0 1.6 2.5 3.7 3.6 3.5 4.7 4.7 4.2 4.5 7.5 3.0 3.5 3.9 4.0 5.2
0.1 0.2 0.3 0.3 0.4 0.7 0.5 0.6 0.7 0.6 0.6 0.5 0.2 0.3 nan 0.0 0.3 0.4 0.4 0.4 0.4 0.4 0.3 0.5 0.8 0.8 1.2 2.4 3.1 4.1 4.7 5.7 5.2 5.7 5.3 4.8 4.8 4.4 4.2 5.0 4.8 5.4 6.4
0.1 0.2 0.3 0.4 0.4 nan 0.5 0.4 0.5 0.4 0.3 0.2 0.2 0.2 0.2 0.2 0.2 0.5 0.6 0.3 0.5 0.6 0.5 0.6 1.1 1.4 0.8 1.7 2.5 4.3 8.7 6.5 4.8 5.2 7.5 7.4 7.0 7.0 7.1 8.3 6.1 8.1 6.8
0.0 0.0 0.0 0.0 0.0 0.0 0.1 0.1 0.2 nan 0.3 0.3 0.2 0.1 0.1 0.1 0.1 0.2 0.3 0.3 0.5 0.5 0.6 0.8 0.9 1.3 1.6 2.5 2.7 3.9 5.5 6.8 5.9 7.2 8.3 10.5 9.6 5.7 6.8 7.9 6.6 6.8 7.3
0.0 0.0 0.0 0.0 0.0 0.0 0.0 0.1 0.2 0.2 0.4 0.4 0.4 0.4 0.3 0.4 0.4 0.6 0.5 0.7 1.0 1.3 0.9 0.9 1.5 2.0 2.6 4.1 4.6 4.8 4.1 nan 4.4 2.3 6.8 7.5 9.4 8.1 8.7 8.8 6.7 6.8 7.5
0.0 0.0 0.0 0.1 0.2 0.1 0.2 0.5 0.8 0.8 1.2 0.9 1.2 1.4 1.2 1.5 1.1 1.5 1.4 1.5 2.2 1.7 1.8 1.7 2.0 3.4 4.3 4.4 4.9 2.9 nan nan 2.2 nan 4.4 9.7 9.1 7.5 7.1 8.2 7.4 8.2 7.9
Water_Equivalent
0.00 0.00 0.00 0.00 0.00 0.00 0.00 0.00 0.00 0.00 0.00 0.00 0.00 0.00 0.00 0.00 0.00 0.00 0.00 0.00 0.00 0.00 0.00 0.00 0.00 0.00 0.00 0.00 0.00 0.00 0.00 0.00 0.00 0.00 0.00 0.00 0.00 0.00 0.00 0.00 0.00 0.00 0.00
0.00 0.00 0.00 0.00 0.00 0.00 0.00 0.00 0.00 0.00 0.00 0.00 0.00 0.00 0.00 0.00 0.00 0.00 0.00 0.00 0.00 0.00 0.00 0.00 0.00 0.00 0.00 0.00 0.00 0.00 0.00 0.00 0.00 0.00 0.00 0.00 0.00 0.00 0.00 0.00 0.00 0.00 0.00
0.00 0.00 0.00 0.00 0.00 0.00 0.00 0.00 0.00 0.00 0.00 0.00 0.00 0.00 0.00 0.00 0.00 0.00 0.00 0.00 0.00 0.00 0.00 0.00 0.00 0.00 0.00 0.00 0.00 0.00 0.00 0.00 0.00 0.00 0.00 0.00 0.00 0.00 0.00 0.00 0.00 0.00 0.00
0.00 0.00 0.00 0.00 0.00 0.00 0.00 0.00 0.00 0.00 0.00 0.00 0.00 0.00 0.00 0.00 0.00 0.00 0.00 0.00 0.00 0.00 0.00 0.00 0.00 0.00 0.00 0.00 0.00 0.00 0.00 0.00 0.00 0.00 0.00 0.00 0.00 0.00 0.00 0.00 0.00 0.00 0.00
0.00 0.00 0.00 0.00 0.00 0.00 0.00 0.00 0.00 0.00 0.00 0.00 0.00 0.00 0.00 0.00 0.00 0.00 0.00 0.00 0.00 0.00 0.00 0.00 0.00 nan nan nan 0.00 0.00 0.00 0.00 0.00 0.00 0.00 0.00 0.00 0.00 0.00 0.00 0.00 0.00 0.00
0.00 0.00 0.00 0.00 0.00 0.00 0.00 0.00 0.00 0.00 0.00 0.00 0.00 0.00 0.00 0.00 nan nan 0.00 0.00 0.00 0.00 0.00 0.00 0.00 0.00 0.00 nan nan nan nan 0.00 0.00 0.00 0.01 0.00 0.00 0.00 0.00 0.00 0.00 0.04 0.06
0.00 0.00 0.00 0.00 0.00 0.00 0.00 0.00 0.00 0.00 0.00 0.00 0.00 0.00 0.00 0.00 nan nan nan 0.00 0.00 0.00 0.00 0.00 0.00 0.00 nan 0.00 nan nan nan nan nan 0.00 0.00 0.00 0.00 0.00 0.00 0.00 0.00 0.05 0.01
0.00 0.00 0.00 0.00 0.00 0.00 0.00 0.00 0.00 0.00 0.00 0.00 0.00 0.00 0.00 0.00 nan nan nan 0.00 0.00 0.00 0.00 0.00 0.00 0.00 0.00 0.00 0.00 0.00 0.00 0.00 0.00 0.00 0.00 0.00 0.00 0.00 0.00 0.00 0.00 0.00 0.00
0.00 0.00 0.00 0.00 0.00 0.00 0.00 0.00 0.00 0.00 0.00 0.00 0.00 0.00 0.00 0.00 nan nan 0.00 0.00 0.00 0.00 0.00 0.00 0.00 0.00 nan nan 0.00 0.00 0.00 0.00 nan nan nan nan nan nan nan 0.01 0.09 0.14 0.09
0.00 0.00 0.00 0.00 0.00 0.00 0.00 0.00 0.00 0.00 0.00 0.00 0.00 0.00 nan 0.00 nan nan nan 0.00 0.00 0.00 0.00 0.00 nan 0.00 nan nan 0.00 0.00 0.00 0.00 0.00 0.00 0.00 0.00 nan nan nan 0.00 0.08 0.36 0.27
0.00 0.00 0.00 0.00 0.00 0.00 0.00 0.00 0.00 0.00 0.00 0.00 0.00 0.00 0.00 0.00 0.00 nan nan 0.00 0.00 0.00 0.00 0.00 0.00 nan nan nan nan 0.00 0.00 0.00 0.00 0.00 0.02 0.06 0.04 0.02 0.02 0.02 0.01 0.27 0.61
0.00 0.00 0.00 0.00 0.00 0.00 0.00 0.00 0.00 0.00 0.00 0.00 0.00 0.00 0.00 0.00 nan nan nan nan nan 0.00 0.00 0.00 0.00 nan nan nan nan nan nan nan 0.00 0.00 0.05 0.09 0.13 0.15 0.13 0.10 0.01 0.05 0.08
0.00 0.00 0.00 0.00 0.00 0.00 0.00 0.00 0.00 0.00 0.00 0.00 0.00 0.00 0.00 0.00 0.00 nan nan nan nan 0.00 0.00 0.00 nan nan nan nan nan nan nan 0.00 0.01 0.11 0.14 0.19 0.20 0.20 0.09 0.14 0.03 0.03 0.07
0.00 0.00 0.00 0.00 0.00 0.00 0.00 0.00 0.00 0.00 0.00 0.00 0.00 0.00 0.00 0.00 0.00 0.00 0.00 0.00 nan 0.00 nan 0.03 nan 0.00 nan nan 0.00 0.00 0.00 0.00 0.05 0.11 0.13 0.11 0.16 0.35 0.34 0.30 0.67 0.66 1.00
0.00 0.00 0.00 0.00 0.00 0.00 0.00 0.00 0.00 0.00 0.00 0.00 0.00 0.00 0.00 0.00 0.00 0.00 0.00 0.00 0.00 0.00 nan 0.00 0.00 0.00 0.02 0.00 0.00 0.00 0.00 0.00 0.11 0.11 0.19 0.24 0.25 0.36 0.46 0.48 0.87 1.06 1.46
0.00 0.00 0.00 0.00 0.00 0.00 0.00 0.00 nan nan nan nan nan 0.00 0.00 nan nan nan nan nan nan nan 0.00 0.00 0.04 0.05 0.06 0.00 0.00 0.00 0.02 0.14 0.13 0.23 0.32 0.38 0.60 0.73 0.82 1.04 1.18 1.25 1.46
0.00 0.00 0.00 0.00 0.00 0.00 0.00 0.00 0.00 0.00 nan nan nan nan nan nan nan nan nan nan nan nan 0.00 0.09 0.10 0.11 0.11 0.12 0.15 0.23 0.45 0.22 0.17 0.85 0.77 0.79 0.87 0.99 1.03 1.12 1.11 1.04 1.01
0.00 nan 0.00 0.00 0.00 0.00 0.00 0.00 0.00 0.00 0.00 0.00 nan nan nan nan nan nan nan nan 0.00 nan 0.10 0.14 0.20 0.20 0.23 0.35 0.40 0.57 0.53 0.53 0.74 0.86 1.00 1.17 1.41 1.71 1.71 1.42 1.06 1.36 1.09
0.00 0.00 0.00 0.00 0.00 0.00 0.00 0.00 0.00 0.00 0.00 0.00 0.00 0.00 nan nan nan nan nan 0.00 0.06 0.11 0.11 0.14 0.12 0.18 0.26 0.32 0.34 0.44 0.37 0.87 1.29 1.67 1.30 1.55 1.48 1.83 1.51 1.08 0.92 0.58 nan
0.00 nan 0.01 0.01 0.01 0.01 0.00 0.01 0.02 0.03 0.03 0.01 0.00 0.00 0.02 0.07 0.14 0.07 0.07 0.08 0.09 0.08 0.08 0.11 0.11 0.17 0.25 0.38 0.53 0.61 0.92 1.00 1.06 1.05 1.24 1.39 1.27 1.32 1.53 1.13 0.84 1.34 0.89
0.01 0.01 nan 0.02 0.03 0.04 0.04 0.05 0.04 0.06 0.07 0.05 0.02 0.02 nan 0.11 0.11 0.09 0.08 0.09 0.10 0.11 0.14 0.13 0.17 0.24 0.31 0.41 0.59 0.86 1.25 1.19 1.13 1.50 1.46 1.25 1.26 1.65 0.74 0.86 0.90 0.88 1.12
0.02 0.04 0.05 0.05 0.07 0.13 0.10 0.12 0.14 0.13 0.11 0.11 0.05 0.07 nan 0.01 0.11 0.13 0.13 0.14 0.13 0.13 0.12 0.20 0.30 0.32 0.45 0.89 1.10 1.39 1.41 1.59 1.56 1.74 1.61 1.37 1.24 1.00 0.96 1.05 0.97 1.07 1.21
0.02 0.03 0.04 0.05 0.06 nan 0.12 0.10 0.12 0.10 0.07 0.06 0.05 0.05 0.06 0.07 0.07 0.16 0.17 0.13 0.18 0.22 0.17 0.22 0.37 0.50 0.33 0.61 0.95 1.55 2.58 1.74 1.48 1.57 1.80 1.55 1.43 1.41 1.44 1.51 1.15 1.37 1.15
0.00 0.00 0.00 0.00 0.00 0.01 0.03 0.04 0.05 nan 0.10 0.10 0.08 0.04 0.03 0.02 0.03 0.05 0.12 0.12 0.17 0.16 0.22 0.27 0.34 0.45 0.55 0.86 0.88 1.27 1.68 1.97 1.75 1.98 2.30 2.50 1.78 1.23 1.27 1.35 1.13 1.06 1.15
0.00 0.00 0.00 0.00 0.01 0.01 0.01 0.04 0.06 0.06 0.10 0.10 0.11 0.11 0.09 0.11 0.12 0.19 0.14 0.22 0.30 0.36 0.26 0.28 0.46 0.60 0.74 1.11 1.28 1.36 1.20 nan 1.30 0.76 1.55 1.57 1.69 1.37 1.45 1.46 1.10 1.11 1.11
0.01 0.00 0.00 0.02 0.05 0.05 0.07 0.16 0.23 0.24 0.35 0.24 0.31 0.35 0.31 0.35 0.28 0.40 0.37 0.38 0.52 0.42 0.42 0.45 0.52 0.76 0.99 1.21 1.36 0.89 nan nan 0.55 nan 1.04 1.79 1.45 1.19 1.16 1.28 1.15 1.26 1.17
SL_Ratio
nan nan nan nan nan nan nan nan nan nan nan nan nan nan nan nan nan nan nan nan nan nan nan nan nan nan nan nan nan nan nan nan nan nan nan nan nan nan nan nan nan nan nan
nan nan nan nan nan nan nan nan nan nan nan nan nan nan nan nan nan nan nan nan nan nan nan nan nan nan nan nan nan nan nan nan nan nan nan nan nan nan nan nan nan nan nan
nan nan nan nan nan nan nan nan nan nan nan nan nan nan nan nan nan nan nan nan nan nan nan nan nan nan nan nan nan nan nan nan nan nan nan nan nan nan nan nan nan nan nan
nan nan nan nan nan nan nan nan nan nan nan nan nan nan nan nan nan nan nan nan nan nan nan nan nan nan nan nan nan nan nan nan nan nan nan nan nan nan nan nan nan nan nan
nan nan nan nan nan nan nan nan nan nan nan nan nan nan nan nan nan nan nan nan nan nan nan nan nan nan nan nan nan nan nan nan nan nan nan nan nan nan nan nan nan nan nan
nan nan nan nan nan nan nan nan nan nan nan nan nan nan nan nan nan nan nan nan nan nan nan nan nan nan nan nan nan nan nan nan nan 2.1 2.5 nan nan nan nan nan 0.0 2.5 2.5
nan nan nan nan nan nan nan nan nan nan nan nan nan nan nan nan nan nan nan nan nan nan nan nan nan nan nan nan nan nan nan nan nan nan 0.0 nan nan nan nan 0.0 nan 2.5 2.3
nan nan nan nan nan nan nan nan nan nan nan nan nan nan nan nan nan nan nan nan nan nan nan nan nan nan nan nan nan nan nan nan nan nan nan nan nan nan nan nan nan nan nan
nan nan nan nan nan nan nan nan nan nan nan nan nan nan nan nan nan nan nan nan nan nan nan nan nan nan nan nan nan nan nan nan nan nan nan nan nan nan nan 2.7 2.5 2.5 2.5
nan nan nan nan nan nan nan nan nan nan nan nan nan nan nan nan nan nan nan nan nan nan nan nan nan nan nan nan nan nan nan nan nan nan nan nan nan nan nan nan 2.5 2.5 2.5
nan nan nan nan nan nan nan nan nan nan nan nan nan nan nan nan nan nan nan nan nan nan nan nan nan nan nan nan nan nan nan nan nan nan 2.7 2.8 2.9 2.9 3.2 2.8 2.9 2.5 2.5
nan nan nan nan nan nan nan nan nan nan nan nan nan nan nan nan nan nan nan nan nan nan nan nan nan nan nan nan nan nan nan nan nan nan 2.5 2.5 2.5 2.5 2.5 2.5 2.2 2.5 2.5
nan nan nan nan nan nan nan nan nan nan nan nan nan nan nan nan nan nan nan nan nan nan nan nan nan nan nan nan nan nan nan 2.0 2.4 2.5 2.5 2.5 2.5 2.5 2.5 2.6 2.6 2.5 2.5
nan nan nan nan nan nan nan nan nan nan nan nan nan nan nan nan nan nan nan nan nan nan nan 2.5 nan nan nan nan nan nan nan nan 2.5 2.5 2.5 2.5 2.5 2.6 2.7 2.6 2.9 2.8 3.1
nan nan nan nan nan nan nan nan nan nan nan nan nan nan 0.0 nan nan nan nan nan nan nan nan nan nan nan 2.6 nan nan nan nan nan 2.6 2.5 2.7 2.8 2.7 2.8 2.9 2.8 3.0 3.0 3.8
nan nan nan nan nan nan nan nan nan nan nan nan nan nan nan nan nan nan nan nan nan nan nan nan 2.5 2.5 2.5 nan nan 5.0 2.5 2.6 2.6 2.6 2.8 2.9 3.2 3.3 3.3 3.3 3.1 3.6 4.2
nan nan nan nan nan nan nan nan 3.3 nan nan nan nan nan nan nan nan nan nan nan nan nan nan 2.5 2.6 2.7 2.6 2.7 2.7 2.7 3.0 2.6 2.6 2.9 3.1 3.2 3.3 3.5 3.4 3.6 3.7 3.8 4.2
3.8 nan 0.0 nan nan nan 3.3 5.0 nan 5.0 5.0 6.0 nan nan nan nan nan nan nan nan nan nan 2.5 2.5 2.7 2.7 2.7 2.8 2.9 3.0 3.0 3.0 3.1 3.1 3.2 3.3 3.5 3.7 3.8 3.9 3.8 4.7 4.4
4.0 4.0 nan nan 6.7 4.4 5.0 4.3 6.7 5.0 5.0 4.0 5.5 4.3 nan nan nan nan nan nan 2.5 2.5 2.5 2.6 2.5 2.5 2.6 2.6 2.6 2.7 2.9 2.9 2.9 3.2 3.4 3.6 3.5 3.7 3.9 3.8 3.9 3.7 nan
nan nan 4.7 4.9 5.3 5.5 5.0 3.4 3.8 3.2 3.2 4.7 6.7 10.0 3.5 2.6 2.6 2.5 2.5 2.5 2.5 2.6 2.5 2.7 2.5 2.5 2.5 2.5 2.6 2.6 2.8 2.8 3.0 3.2 3.5 3.3 3.5 3.6 4.1 4.1 4.2 4.8 4.8
4.6 5.0 nan 5.1 5.1 4.6 4.9 3.9 3.3 3.2 3.1 3.2 3.2 3.1 nan 2.9 2.7 2.5 2.5 2.5 2.6 2.6 2.7 2.7 2.5 2.5 2.5 2.5 2.6 2.9 3.0 3.0 3.1 3.1 3.2 3.3 3.6 4.6 4.0 4.0 4.3 4.6 4.6
5.2 5.4 5.4 5.6 5.3 5.2 5.2 5.1 5.1 5.0 5.0 4.7 4.8 3.6 nan 3.0 2.9 3.0 3.0 2.9 2.8 2.7 2.6 2.7 2.6 2.6 2.6 2.7 2.8 3.0 3.4 3.6 3.3 3.3 3.3 3.5 3.9 4.3 4.3 4.7 5.0 5.1 5.3
5.5 6.0 6.6 6.7 6.3 nan 3.9 4.3 4.1 3.8 3.6 3.3 3.2 3.2 3.0 3.1 3.1 3.0 3.2 2.8 2.8 2.8 2.8 2.7 2.9 2.8 2.5 2.7 2.6 2.8 3.4 3.7 3.3 3.3 4.1 4.8 4.9 5.0 4.9 5.5 5.3 5.9 5.9
6.0 5.0 0.0 6.7 5.0 3.1 3.2 3.2 3.2 nan 2.8 3.2 3.2 3.0 3.0 3.1 3.2 3.4 2.8 2.7 3.0 3.0 2.8 2.8 2.7 2.9 2.9 2.9 3.0 3.1 3.3 3.4 3.3 3.6 3.6 4.2 5.4 4.6 5.4 5.9 5.9 6.4 6.3
nan nan nan nan 2.9 2.9 3.0 2.6 3.0 3.4 3.7 3.7 3.9 3.6 3.1 3.3 3.5 3.4 3.4 3.3 3.2 3.5 3.3 3.4 3.2 3.3 3.4 3.7 3.6 3.5 3.4 nan 3.4 3.0 4.4 4.8 5.6 5.9 6.0 6.0 6.1 6.1 6.7
2.5 2.5 2.2 2.4 2.8 2.8 3.0 3.5 3.4 3.3 3.6 3.6 3.8 3.8 4.0 4.2 4.0 3.7 3.8 4.0 4.2 4.0 4.2 3.8 4.0 4.5 4.4 3.6 3.6 3.2 nan nan 4.0 nan 4.2 5.4 6.3 6.3 6.1 6.4 6.4 6.5 6.8